Location: Newark
(52.2090°N, 4.1550°W)
Time: 23:12:41
(UTC+00:00)

Explorer 7 - Pass Details

Date: 27 September 2019
Orbit: 485 x 680 km, 50.3° (Epoch: 17 October)

Event Time Altitude Azimuth Distance (km) Brightness Sun altitude
Rises 23:05:36 0° 266° (W) 2,816 - -38.0°
Reaches altitude 10° 23:07:49 10° 265° (W) 1,947 - -38.1°
Maximum altitude 23:12:17 71° 182° (S) 668 - -38.3°
Drops below altitude 10° 23:17:01 10° 99° (E) 2,060 - -38.5°
Sets 23:19:25 0° 97° (E) 2,993 - -38.6°
